#datint,netname,site,siteID,timestamp,IntT,BattV,AirT2,AirT,AirT_Avg,AirT_Max,AirT_Min,RH_Avg,RH_Max,RH_Min,EA_Avg,Td_Avg,Td_Max,Td_Min,WindS_Smp,WindS_Avg,WindD_Avg,WindD_SD,WindS_Max,ETo,ETr,SoilT4,SoilT8,SoilVWC8,SolarW_Avg,wetstate_Avg,wetT_Avg,Precip_accum,Precip_WPG,Precip_TB
15min,AgWx,beryljct,423,23SEP2020:00:00:00,61.9,12.89,60.7,61.6,58.9,61.7,57.6,41,44,38,0.731,35.4,36.5,33.6,4.231,5.5,196,12,6.4,0.00032,0.00045,65.1,65.8,10,0,.,.,4.28,0.00,0.00
15min,AgWx,beryljct,423,23SEP2020:00:15:00,60.9,12.89,55.0,55.6,59.7,63.4,54.2,43,55,35,0.742,36.8,38.4,35.1,3.749,3.0,144,73,4.7,0.00008,0.00015,64.9,65.8,10,0,.,.,4.28,0.00,0.00
15min,AgWx,beryljct,423,23SEP2020:00:30:00,59.6,12.9,57.1,57.4,56.0,58.2,53.5,46,52,42,0.672,35.3,37.0,34.0,1.688,4.0,28,21,5.9,0.00015,0.00024,64.6,65.7,10,0,.,.,4.28,0.00,0.00
15min,AgWx,beryljct,423,23SEP2020:00:45:00,58.5,12.89,59.5,58.9,57.4,58.9,56.1,43,46,40,0.687,35.2,35.9,34.4,2.28,1.1,351,65,3.8,-0.00019,-0.00025,64.4,65.7,10,0,.,.,4.28,0.00,0.00
15min,AgWx,beryljct,423,23SEP2020:01:00:00,57.7,12.88,60.1,58.5,57.0,59.9,53.3,44,55,38,0.660,35.3,37.6,33.9,1.535,2.2,270,31,4.4,-0.00003,0.00000,64.2,65.6,10,0,.,.,4.29,0.00,0.00
15min,AgWx,beryljct,423,23SEP2020:01:15:00,57.0,12.88,53.3,55.4,56.6,59.2,54.3,45,52,38,0.725,35.5,37.2,33.7,0.548,0.8,263,11,2.6,-0.00025,-0.00035,64.0,65.6,10,0,.,.,4.28,0.00,0.00
15min,AgWx,beryljct,423,23SEP2020:01:30:00,56.0,12.86,56.5,52.3,52.3,55.1,50.7,56,63,49,0.725,37.2,38.4,35.6,1.184,1.4,71,32,2.8,-0.00016,-0.00021,63.7,65.6,10,0,.,.,4.29,0.01,0.00
15min,AgWx,beryljct,423,23SEP2020:01:45:00,54.9,12.85,55.2,54.5,52.1,54.5,50.6,55,61,48,0.693,36.5,37.6,35.1,1.206,1.0,267,69,3.2,-0.00021,-0.00030,63.5,65.5,10,0,.,.,4.29,0.00,0.00
15min,AgWx,beryljct,423,23SEP2020:02:00:00,54.4,12.86,57.3,56.6,54.7,56.6,52.9,48,54,43,0.677,35.4,36.9,34.5,0.592,1.0,235,19,3.3,-0.00020,-0.00028,63.3,65.4,10,0,.,.,4.29,0.00,0.00
15min,AgWx,beryljct,423,23SEP2020:02:15:00,54.1,12.83,52.3,54.1,55.7,58.4,52.7,47,56,40,0.743,35.5,37.7,34.1,1.118,2.7,240,37,4.5,0.00001,0.00006,63.0,65.4,10,0,.,.,4.29,0.00,0.00
15min,AgWx,beryljct,423,23SEP2020:02:30:00,53.8,12.84,52.6,56.5,54.6,58.3,52.1,49,57,41,0.682,35.9,37.6,34.3,3.42,2.2,175,27,5.0,-0.00006,-0.00004,62.8,65.3,10,0,.,.,4.29,0.00,0.00
15min,AgWx,beryljct,423,23SEP2020:02:45:00,53.6,12.82,55.6,54.5,53.4,56.1,51.4,48,55,44,0.660,34.0,35.7,32.6,2.872,3.3,208,9.6,4.5,0.00006,0.00012,62.6,65.3,10,0,.,.,4.29,0.00,0.00
15min,AgWx,beryljct,423,23SEP2020:03:00:00,53.1,12.82,56.1,54.8,53.1,55.1,50.8,50,59,44,0.679,34.9,37.1,33.3,2.499,2.4,197,4.8,3.2,-0.00004,-0.00001,62.3,65.2,10,0,.,.,4.29,0.00,0.00
15min,AgWx,beryljct,423,23SEP2020:03:15:00,53.0,12.81,47.5,49.4,54.8,57.0,49.4,48,55,43,0.630,35.2,37.2,32.8,3.288,3.0,180,23,4.0,0.00004,0.00009,62.1,65.1,10,0,.,.,4.29,0.00,0.00
15min,AgWx,beryljct,423,23SEP2020:03:30:00,52.5,12.81,49.5,51.3,52.0,55.0,48.3,53,62,48,0.735,35.4,37.2,31.6,2.346,3.1,214,13,4.6,0.00002,0.00006,61.9,65.1,10,0,.,.,4.29,0.00,0.00
15min,AgWx,beryljct,423,23SEP2020:03:45:00,52.1,12.81,52.2,53.2,53.9,57.7,50.7,53,62,44,0.779,37.1,38.4,35.7,2.324,2.2,280,9.7,2.7,-0.00006,-0.00006,61.7,65.0,10,0,.,.,4.29,0.00,0.00
15min,AgWx,beryljct,423,23SEP2020:04:00:00,51.8,12.78,49.3,49.6,51.0,53.1,49.3,61,64,57,0.765,38.1,38.5,37.4,0,3.0,219,27,4.4,-0.00002,-0.00000,61.5,64.9,10,0,.,.,4.29,0.00,0.00
15min,AgWx,beryljct,423,23SEP2020:04:15:00,51.2,12.79,46.6,48.2,48.4,49.5,47.1,64,69,60,0.767,36.9,38.4,35.8,0.285,0.7,232,19,2.5,-0.00024,-0.00034,61.3,64.8,10,0,.,.,4.29,0.00,0.00
15min,AgWx,beryljct,423,23SEP2020:04:30:00,50.3,12.78,48.6,46.3,47.9,50.6,46.0,64,75,53,0.641,36.3,39.3,31.3,1.6,1.7,144,27,4.4,-0.00014,-0.00017,61.1,64.8,10,0,.,.,4.29,0.00,0.00
15min,AgWx,beryljct,423,23SEP2020:04:45:00,49.4,12.77,49.1,49.7,45.1,49.7,43.7,64,71,55,0.661,33.7,35.1,30.5,2.302,1.6,164,25,3.8,-0.00014,-0.00018,60.9,64.7,10,0,.,.,4.29,0.00,0.00
15min,AgWx,beryljct,423,23SEP2020:05:00:00,49.0,12.77,50.2,50.1,50.5,55.5,46.4,53,58,47,0.664,34.0,35.8,32.3,0,1.4,172,24,3.2,-0.00015,-0.00018,60.7,64.6,10,0,.,.,4.29,0.00,0.00
15min,AgWx,beryljct,423,23SEP2020:05:15:00,48.5,12.75,44.2,46.0,47.1,50.5,44.1,59,69,52,0.583,33.3,34.8,30.8,3.551,2.0,157,18,3.6,-0.00010,-0.00011,60.5,64.5,10,0,.,.,4.30,0.00,0.00
15min,AgWx,beryljct,423,23SEP2020:05:30:00,48.0,12.76,45.5,45.9,46.1,47.9,43.9,61,71,51,0.675,33.2,36.1,29.9,4.099,2.7,219,56,4.9,-0.00004,-0.00003,60.4,64.4,10,0,.,.,4.29,0.00,0.00
15min,AgWx,beryljct,423,23SEP2020:05:45:00,47.4,12.75,44.0,43.5,44.1,45.9,43.0,64,70,61,0.658,32.7,34.5,31.5,1.556,2.0,345,48,3.7,-0.00011,-0.00013,60.2,64.4,10,0,.,.,4.29,0.00,0.00
15min,AgWx,beryljct,423,23SEP2020:06:00:00,46.7,12.74,42.8,42.2,43.5,43.9,42.2,68,72,66,0.661,33.8,34.4,33.2,2.674,1.4,95,69,2.7,-0.00016,-0.00021,60.0,64.3,10,0,.,.,4.29,0.00,0.00
15min,AgWx,beryljct,423,23SEP2020:06:15:00,45.9,12.73,44.7,43.8,42.3,43.8,41.0,71,76,64,0.621,33.6,34.5,32.2,2.916,1.8,177,18,3.1,-0.00013,-0.00017,59.8,64.2,10,0,.,.,4.29,0.00,0.00
15min,AgWx,beryljct,423,23SEP2020:06:30:00,45.3,12.72,43.4,42.5,42.1,44.0,41.2,70,74,62,0.620,33.0,33.8,31.6,0.986,1.8,157,35,5.1,-0.00013,-0.00016,59.6,64.1,10,0,.,.,4.30,0.00,0.00
15min,AgWx,beryljct,423,23SEP2020:06:45:00,44.7,12.7,44.0,44.0,42.9,44.0,41.8,68,71,65,0.646,32.9,33.5,32.4,2.126,1.4,131,3.2,4.1,0.00011,0.00018,59.4,64.0,10,0,.,.,4.29,0.00,0.00
15min,AgWx,beryljct,423,23SEP2020:07:00:00,44.4,12.71,41.6,41.6,43.6,44.2,41.6,67,72,64,0.645,33.4,34.5,32.5,0.636,2.8,179,17,4.8,0.00020,0.00035,59.2,63.9,10,0,.,.,4.30,0.00,0.00
15min,AgWx,beryljct,423,23SEP2020:07:15:00,44.0,12.7,41.6,41.0,40.9,41.7,40.2,75,77,72,0.653,33.5,34.1,33.0,0,1.3,173,7.2,3.3,0.00008,0.00013,59.0,63.8,10,1,.,.,4.29,0.00,0.00
15min,AgWx,beryljct,423,23SEP2020:07:30:00,43.6,12.7,42.5,41.5,41.4,42.0,40.8,73,76,72,0.643,33.6,33.9,33.3,1.315,0.5,316,13,2.8,0.00006,0.00008,58.9,63.8,10,4,.,.,4.30,0.01,0.00
15min,AgWx,beryljct,423,23SEP2020:07:45:00,43.4,12.71,42.9,42.3,41.1,42.3,40.3,66,74,63,0.580,30.6,33.4,28.8,1.381,2.9,307,4.0,3.9,0.00030,0.00045,58.7,63.7,10,22,.,.,4.30,0.00,0.00
15min,AgWx,beryljct,423,23SEP2020:08:00:00,43.5,12.77,42.4,41.9,41.7,42.7,40.6,66,70,61,0.612,31.1,32.4,29.6,4.735,1.4,6.9,40,4.7,0.00039,0.00048,58.5,63.6,10,57,.,.,4.30,0.00,0.00
15min,AgWx,beryljct,423,23SEP2020:08:15:00,44.3,12.82,45.6,44.9,43.6,45.4,41.9,61,67,57,0.588,31.1,32.9,29.5,4.691,5.0,341,16,6.3,0.00076,0.00106,58.3,63.5,10,97,.,.,4.29,0.00,0.00
15min,AgWx,beryljct,423,23SEP2020:08:30:00,45.7,12.97,46.4,46.1,45.1,46.2,44.2,58,64,54,0.573,31.4,32.9,30.3,2.631,4.1,7.4,14,5.7,0.00093,0.00123,58.1,63.4,10,143,.,.,4.29,0.00,0.00
15min,AgWx,beryljct,423,23SEP2020:08:45:00,47.5,13.24,48.6,48.0,47.1,48.0,46.1,56,61,53,0.665,32.2,35.0,30.5,3.705,3.2,16,20,4.5,0.00111,0.00140,58.0,63.3,10,190,.,.,4.29,0.00,0.00
15min,AgWx,beryljct,423,23SEP2020:09:00:00,49.8,13.57,52.1,51.7,50.4,51.7,48.2,53,60,48,0.677,34.1,35.2,32.3,4.187,4.2,32,4.3,5.3,0.00147,0.00187,57.9,63.2,10,241,.,.,4.29,0.00,0.00
15min,AgWx,beryljct,423,23SEP2020:09:15:00,52.7,14.42,55.1,54.7,53.4,54.7,51.6,49,52,44,0.655,34.6,35.9,33.4,2.959,3.6,42,13,4.3,0.00178,0.00220,57.8,63.1,10,291,.,.,4.28,0.00,0.00
15min,AgWx,beryljct,423,23SEP2020:09:30:00,55.7,14.36,57.9,57.5,56.0,57.5,54.7,44,48,42,0.698,34.7,36.0,33.4,2.872,2.9,46,15,3.8,0.00208,0.00250,57.7,63.0,10,342,.,.,4.28,0.00,0.00
15min,AgWx,beryljct,423,23SEP2020:09:45:00,59.0,14.26,59.7,60.1,58.9,60.1,57.6,42,44,40,0.744,35.8,37.7,34.3,2.872,2.4,71,16,3.6,0.00240,0.00282,57.7,62.9,10,393,.,.,4.28,0.00,0.00
15min,AgWx,beryljct,423,23SEP2020:10:00:00,62.3,14.22,62.7,62.3,61.2,62.5,60.0,41,43,38,0.747,37.0,39.4,35.7,1.14,1.8,84,18,2.9,0.00270,0.00309,57.7,62.9,10,441,.,.,4.27,0.00,0.00
15min,AgWx,beryljct,423,23SEP2020:10:15:00,65.4,14.17,64.0,63.7,63.2,64.2,62.4,44,47,39,0.847,40.7,42.5,37.4,2.938,2.5,118,12,3.7,0.00308,0.00356,57.8,62.8,10,487,.,.,4.27,0.00,0.00
15min,AgWx,beryljct,423,23SEP2020:10:30:00,68.0,14.19,66.2,66.6,65.3,66.7,63.8,40,44,37,0.844,40.5,42.1,38.9,1.578,1.9,102,15,3.1,0.00337,0.00383,57.9,62.7,10,530,.,.,4.26,0.00,0.00
15min,AgWx,beryljct,423,23SEP2020:10:45:00,70.9,14.08,69.7,69.2,68.2,69.4,66.5,38,41,36,0.898,41.7,43.4,39.6,1.381,0.7,48,48,2.3,0.00361,0.00395,58.1,62.6,10,571,.,.,4.26,0.00,0.00
15min,AgWx,beryljct,423,23SEP2020:11:00:00,73.9,14.02,72.7,71.8,70.8,72.0,69.3,34,40,29,0.779,41.0,45.2,37.9,0.811,1.2,33,36,2.7,0.00399,0.00444,58.4,62.5,10,609,.,.,4.26,0.00,0.00
15min,AgWx,beryljct,423,23SEP2020:11:15:00,76.6,14,73.9,74.0,73.3,74.3,71.9,28,32,25,0.715,38.0,42.3,35.7,1.863,1.9,55,29,3.7,0.00441,0.00501,58.7,62.5,10,646,.,.,4.25,0.00,0.00
15min,AgWx,beryljct,423,23SEP2020:11:30:00,79.0,13.55,76.1,76.4,75.5,76.7,74.0,25,31,21,0.657,37.6,42.3,33.8,1.776,2.0,30,30,3.4,0.00473,0.00539,59.1,62.4,10,679,.,.,4.25,0.00,0.00
15min,AgWx,beryljct,423,23SEP2020:11:45:00,81.0,13.5,76.3,77.0,77.1,77.9,76.2,23,27,19,0.738,36.4,41.0,31.4,2.214,2.5,92,32,4.3,0.00507,0.00585,59.5,62.3,10,710,.,.,4.25,0.00,0.00
15min,AgWx,beryljct,423,23SEP2020:12:00:00,82.2,13.51,77.5,77.1,77.4,78.3,76.8,24,28,21,0.713,37.6,41.3,34.3,4.779,3.5,85,24,6.2,0.00538,0.00636,60.0,62.3,10,734,.,.,4.24,0.00,0.00
15min,AgWx,beryljct,423,23SEP2020:12:15:00,82.8,13.47,79.2,78.4,77.9,78.5,77.2,24,28,20,0.723,37.7,42.2,34.3,3.551,4.1,91,10,6.4,0.00564,0.00675,60.5,62.2,10,757,.,.,4.24,0.00,0.00
15min,AgWx,beryljct,423,23SEP2020:12:30:00,83.5,13.45,79.1,80.0,79.0,80.0,78.4,22,24,19,0.818,36.5,40.0,33.3,3.288,3.9,89,12,6.3,0.00578,0.00689,61.1,62.2,10,774,.,.,4.24,0.01,0.00
15min,AgWx,beryljct,423,23SEP2020:12:45:00,84.4,13.53,80.9,80.1,79.9,80.2,79.6,20,24,18,0.778,35.5,39.6,32.6,2.674,3.7,102,17,7.2,0.00586,0.00694,61.7,62.2,10,787,.,.,4.24,0.00,0.00
15min,AgWx,beryljct,423,23SEP2020:13:00:00,85.4,13.46,80.4,80.6,80.5,81.1,80.1,20,24,18,0.650,35.8,40.6,32.4,2.499,3.7,86,22,7.5,0.00596,0.00705,62.4,62.2,10,801,.,.,4.24,0.00,0.00
15min,AgWx,beryljct,423,23SEP2020:13:15:00,86.2,13.41,82.7,82.5,81.7,83.2,80.5,18,24,16,0.624,34.1,40.3,31.6,3.003,2.8,146,61,5.5,0.00589,0.00686,63.0,62.2,10,808,.,.,4.24,0.00,0.00
15min,AgWx,beryljct,423,23SEP2020:13:30:00,87.0,13.4,81.1,81.6,82.1,83.3,81.5,18,21,16,0.693,34.4,38.5,31.4,4.165,3.4,115,41,6.9,0.00602,0.00710,63.7,62.2,10,810,.,.,4.24,0.00,0.00
15min,AgWx,beryljct,423,23SEP2020:13:45:00,87.5,13.43,83.1,82.1,82.0,82.7,81.5,18,22,16,0.725,34.9,40.2,31.9,2.083,3.5,66,34,7.0,0.00604,0.00715,64.4,62.2,10,809,.,.,4.24,0.00,0.00
15min,AgWx,beryljct,423,23SEP2020:14:00:00,88.3,13.34,83.6,83.5,82.7,84.1,82.1,17,21,16,0.646,33.9,38.7,31.6,2.981,3.9,191,47,9.4,0.00609,0.00729,65.1,62.3,10,803,.,.,4.24,0.00,0.00
15min,AgWx,beryljct,423,23SEP2020:14:15:00,88.8,13.38,83.1,82.4,82.8,83.5,82.2,19,25,16,0.737,36.6,43.6,32.6,2.389,4.6,93,41,8.6,0.00611,0.00740,65.7,62.4,10,788,.,.,4.24,0.00,0.00
15min,AgWx,beryljct,423,23SEP2020:14:30:00,89.2,13.34,83.3,83.0,82.9,83.5,82.3,19,25,17,0.753,36.5,43.9,32.7,5.568,3.7,81,28,7.7,0.00588,0.00701,66.4,62.4,10,778,.,.,4.24,0.00,0.00
15min,AgWx,beryljct,423,23SEP2020:14:45:00,89.9,13.33,83.3,83.5,83.3,84.0,82.7,16,20,15,0.724,33.1,38.7,31.0,10.85,4.8,13,47,12.0,0.00595,0.00729,67.0,62.5,10,760,.,.,4.24,0.00,0.00
15min,AgWx,beryljct,423,23SEP2020:15:00:00,90.1,13.41,83.0,83.6,83.3,83.9,82.8,19,22,16,0.724,36.5,41.1,32.5,7.366,7.2,111,19,11.1,0.00621,0.00797,67.7,62.6,10,737,.,.,4.24,0.00,0.00
15min,AgWx,beryljct,423,23SEP2020:15:15:00,89.9,13.3,83.0,83.6,83.7,84.1,83.4,19,23,16,0.834,37.2,41.9,32.9,13.88,8.3,130,16,13.9,0.00625,0.00818,68.3,62.7,10,714,.,.,4.25,0.00,0.00
15min,AgWx,beryljct,423,23SEP2020:15:30:00,89.6,13.34,84.3,84.5,84.6,85.2,83.6,17,21,15,0.618,34.6,39.2,32.3,10.39,10.1,169,26,20.7,0.00646,0.00876,68.8,62.9,10,687,.,.,4.25,0.00,0.00
15min,AgWx,beryljct,423,23SEP2020:15:45:00,89.4,13.33,83.3,83.5,84.3,85.1,83.5,16,17,15,0.590,33.3,35.9,30.8,4.45,10.0,169,47,18.5,0.00605,0.00832,69.3,63.0,10,628,.,.,4.25,0.00,0.00
15min,AgWx,beryljct,423,23SEP2020:16:00:00,89.6,13.36,84.0,85.1,84.8,85.8,83.4,16,20,14,0.603,33.3,40.3,29.9,8.31,6.2,192,68,14.1,0.00529,0.00689,69.8,63.2,10,619,.,.,4.25,0.00,0.00
15min,AgWx,beryljct,423,23SEP2020:16:15:00,89.7,13.28,84.8,85.1,85.1,85.8,84.7,16,18,14,0.558,33.8,37.5,29.8,4.165,8.7,199,24,15.2,0.00556,0.00762,70.2,63.3,10,585,.,.,4.25,0.00,0.00
15min,AgWx,beryljct,423,23SEP2020:16:30:00,89.7,13.29,84.2,84.5,85.2,86.0,84.3,16,18,14,0.747,33.6,37.5,30.0,8.86,7.3,186,21,13.5,0.00489,0.00665,70.5,63.5,10,533,.,.,4.25,0.00,0.00
15min,AgWx,beryljct,423,23SEP2020:16:45:00,89.6,13.31,84.9,84.9,84.7,85.3,84.3,16,20,14,0.606,33.5,39.0,30.3,6.226,8.1,177,22,12.9,0.00487,0.00676,70.8,63.6,10,507,.,.,4.25,0.00,0.00
15min,AgWx,beryljct,423,23SEP2020:17:00:00,89.0,13.33,83.0,83.3,84.1,85.5,83.3,16,17,15,0.648,32.7,35.0,30.7,6.335,9.0,195,24,13.8,0.00402,0.00601,71.1,63.8,10,360,.,.,4.25,0.00,0.00
15min,AgWx,beryljct,423,23SEP2020:17:15:00,87.3,13.38,83.3,83.3,82.5,83.3,81.5,18,19,15,0.638,34.1,36.7,31.2,9.21,8.2,220,16,12.8,0.00307,0.00479,71.3,64.0,10,263,.,.,4.26,0.00,0.00
15min,AgWx,beryljct,423,23SEP2020:17:30:00,86.7,13.36,84.2,83.9,83.7,84.0,83.4,16,18,15,0.588,33.0,35.5,30.6,4.056,6.8,202,16,10.4,0.00358,0.00517,71.4,64.2,10,367,.,.,4.25,0.00,0.00
15min,AgWx,beryljct,423,23SEP2020:17:45:00,86.6,13.36,82.7,83.5,83.9,84.2,83.5,16,18,14,0.709,33.2,36.0,30.3,10.43,6.4,194,16,10.8,0.00310,0.00457,71.5,64.3,10,315,.,.,4.25,0.00,0.00
15min,AgWx,beryljct,423,23SEP2020:18:00:00,86.2,13.36,82.4,82.8,82.9,83.3,82.5,17,19,15,0.645,33.8,36.7,31.2,8.81,8.6,202,17,11.9,0.00323,0.00506,71.5,64.5,10,266,.,.,4.25,0.00,0.00
15min,AgWx,beryljct,423,23SEP2020:18:15:00,85.6,13.41,81.3,81.6,82.3,83.1,81.6,18,20,15,0.724,34.7,37.9,30.8,3.946,6.4,201,10,11.3,0.00236,0.00376,71.5,64.7,10,217,.,.,4.25,0.00,0.00
15min,AgWx,beryljct,423,23SEP2020:18:30:00,84.5,13.44,80.7,80.9,81.4,82.1,80.6,19,21,16,0.700,34.7,37.4,31.7,8.05,6.5,203,10,10.3,0.00139,0.00194,71.4,64.8,10,169,.,.,4.25,0.00,0.00
15min,AgWx,beryljct,423,23SEP2020:18:45:00,83.3,13.3,79.2,79.7,80.5,81.4,79.4,19,22,17,0.674,34.4,36.9,32.1,7.607,7.3,207,10,10.4,0.00136,0.00187,71.3,65.0,10,124,.,.,4.25,0.00,0.00
15min,AgWx,beryljct,423,23SEP2020:19:00:00,81.8,13.2,78.4,78.4,78.8,79.7,78.1,20,22,19,0.659,34.8,36.4,33.4,8.97,6.8,214,5.0,9.9,0.00112,0.00157,71.2,65.1,9,83,.,.,4.26,0.00,0.00
15min,AgWx,beryljct,423,23SEP2020:19:15:00,80.1,13.09,77.0,76.6,77.5,78.7,76.6,21,22,19,0.666,34.2,35.4,32.4,6.927,7.3,213,6.3,10.0,0.00105,0.00146,71.1,65.3,10,42,.,.,4.26,0.00,0.00
15min,AgWx,beryljct,423,23SEP2020:19:30:00,78.3,13.06,75.0,75.1,76.0,76.8,75.1,21,22,20,0.655,33.6,34.1,33.0,7.015,7.1,211,5.7,8.9,0.00091,0.00128,70.9,65.4,10,10,.,.,4.26,0.00,0.00
15min,AgWx,beryljct,423,23SEP2020:19:45:00,76.5,13.02,73.5,73.6,74.5,75.2,73.6,22,23,21,0.643,33.4,33.9,32.8,6.664,6.9,207,4.6,8.2,0.00083,0.00117,70.7,65.5,10,2,.,.,4.27,0.00,0.00
15min,AgWx,beryljct,423,23SEP2020:20:00:00,74.8,13,73.1,73.3,73.0,73.7,72.4,23,24,22,0.640,33.5,34.0,32.9,7.695,6.8,212,5.1,9.0,0.00077,0.00108,70.4,65.6,10,0,.,.,4.26,0.00,0.00
15min,AgWx,beryljct,423,23SEP2020:20:15:00,73.8,12.98,74.1,73.7,73.6,74.1,73.2,23,24,22,0.641,33.2,33.9,32.7,7.914,8.4,217,5.6,11.1,0.00096,0.00131,70.1,65.8,10,0,.,.,4.27,0.00,0.00
15min,AgWx,beryljct,423,23SEP2020:20:30:00,73.3,13,71.6,72.3,73.3,73.8,72.3,23,24,22,0.637,32.9,33.4,32.2,6.072,7.9,212,6.2,9.7,0.00091,0.00125,69.9,65.9,10,0,.,.,4.26,0.00,0.00
15min,AgWx,beryljct,423,23SEP2020:20:45:00,72.3,12.97,69.5,69.4,71.3,72.3,69.4,24,25,23,0.564,32.3,33.4,30.0,6.292,7.2,193,14,9.5,0.00079,0.00109,69.6,66.0,10,0,.,.,4.27,0.00,0.00
15min,AgWx,beryljct,423,23SEP2020:21:00:00,71.1,12.98,68.7,68.3,69.3,70.0,68.3,23,25,23,0.578,30.4,31.0,30.0,6.796,6.3,176,7.0,7.7,0.00066,0.00094,69.3,66.0,10,0,.,.,4.27,0.01,0.00
15min,AgWx,beryljct,423,23SEP2020:21:15:00,69.9,12.96,68.5,68.1,68.7,69.3,67.6,25,26,24,0.576,31.8,33.2,30.2,6.27,6.9,189,9.2,8.4,0.00070,0.00097,69.0,66.1,10,0,.,.,4.27,0.00,0.00
15min,AgWx,beryljct,423,23SEP2020:21:30:00,69.0,12.97,68.7,68.3,68.4,68.9,68.1,24,25,24,0.572,30.6,31.1,30.1,6.818,6.4,177,8.3,7.9,0.00065,0.00091,68.7,66.2,10,0,.,.,4.27,0.00,0.00
15min,AgWx,beryljct,423,23SEP2020:21:45:00,68.3,12.93,69.1,68.6,68.0,68.6,67.6,25,26,24,0.588,30.9,31.3,30.3,7.19,6.8,174,6.9,8.2,0.00068,0.00094,68.4,66.2,10,0,.,.,4.27,0.00,0.00
15min,AgWx,beryljct,423,23SEP2020:22:00:00,67.9,12.95,67.9,68.1,68.7,69.0,68.1,25,26,24,0.598,31.3,31.7,31.0,6.883,6.9,175,7.4,8.6,0.00070,0.00097,68.1,66.2,10,0,.,.,4.27,0.00,0.00
15min,AgWx,beryljct,423,23SEP2020:22:15:00,67.5,12.94,67.0,68.0,67.9,68.7,67.4,26,27,25,0.609,31.6,32.5,31.2,4.801,6.8,180,7.8,8.3,0.00067,0.00093,67.9,66.2,10,0,.,.,4.27,0.00,0.00
15min,AgWx,beryljct,423,23SEP2020:22:30:00,67.0,12.93,60.1,61.0,66.7,67.8,61.0,28,36,26,0.646,32.2,34.7,31.2,5.722,4.3,159,15,5.7,0.00036,0.00056,67.6,66.3,10,0,.,.,4.27,0.00,0.00
15min,AgWx,beryljct,423,23SEP2020:22:45:00,65.4,12.92,64.1,63.6,61.0,63.6,59.1,34,38,30,0.602,32.5,33.4,31.5,6.292,5.4,150,8.1,6.7,0.00038,0.00054,67.3,66.3,10,0,.,.,4.27,0.00,0.00
15min,AgWx,beryljct,423,23SEP2020:23:00:00,64.0,12.92,64.0,63.7,61.9,63.8,59.7,33,38,29,0.576,32.5,34.2,30.5,2.214,2.5,19,84,6.1,0.00005,0.00013,67.0,66.3,10,0,.,.,4.28,0.00,0.00
15min,AgWx,beryljct,423,23SEP2020:23:15:00,62.9,12.92,63.5,61.0,61.6,64.0,59.5,34,38,29,0.598,32.5,34.4,30.6,3.617,1.7,144,65,4.3,-0.00008,-0.00008,66.8,66.3,9,0,.,.,4.27,0.00,0.00
15min,AgWx,beryljct,423,23SEP2020:23:30:00,61.6,12.92,57.8,57.6,57.9,61.9,55.1,40,48,32,0.586,33.5,36.1,31.0,3.069,3.6,179,24,4.8,0.00015,0.00025,66.5,66.3,10,0,.,.,4.28,0.01,0.00
15min,AgWx,beryljct,423,23SEP2020:23:45:00,60.1,12.91,57.6,57.3,56.1,59.0,53.3,40,50,34,0.581,31.9,35.7,30.2,2.762,2.1,179,20,3.4,-0.00003,-0.00000,66.2,66.3,10,0,.,.,4.28,0.00,0.00
15min,AgWx,beryljct,423,24SEP2020:00:00:00,59.0,12.91,53.2,55.2,57.6,60.5,54.5,36,42,31,0.593,30.5,32.5,29.7,2.543,3.0,162,9.2,3.7,0.00010,0.00019,66.0,66.3,10,0,.,.,4.28,0.01,0.00
15min,AgWx,beryljct,423,24SEP2020:00:15:00,57.9,12.88,52.7,53.0,54.7,58.2,52.0,39,49,33,0.523,30.3,33.9,27.1,2.806,3.3,171,18,5.2,0.00011,0.00020,65.7,66.2,10,0,.,.,4.28,0.00,0.00
15min,AgWx,beryljct,423,24SEP2020:00:30:00,56.7,12.89,52.2,53.0,52.8,53.7,51.7,39,45,36,0.524,28.6,31.2,27.1,3.661,2.0,191,13,3.7,-0.00005,-0.00003,65.4,66.2,10,0,.,.,4.28,0.00,0.00
15min,AgWx,beryljct,423,24SEP2020:00:45:00,55.7,12.88,52.5,51.6,52.3,53.0,51.4,39,43,36,0.495,28.0,29.6,26.8,6.248,4.2,175,8.8,6.6,0.00019,0.00029,65.2,66.2,10,0,.,.,4.28,0.00,0.00
15min,AgWx,bigpiney,439,23SEP2020:00:00:00,41.4,12.57,34.6,33.9,35.1,38.7,33.8,85,88,78,0.582,31.2,34.5,30.2,3.508,4.5,228,7.2,5.9,0.00007,0.00009,48.1,47.8,45,0,0,0.0,0.05,0.00,0.00
15min,AgWx,bigpiney,439,23SEP2020:00:15:00,40.4,12.57,35.5,35.1,34.9,35.7,33.9,88,89,86,0.605,31.6,32.5,30.9,4.954,3.8,230,5.5,5.1,0.00005,0.00007,48.0,47.8,45,0,0,0.0,0.05,0.00,0.00
15min,AgWx,bigpiney,439,23SEP2020:00:30:00,39.7,12.55,36.4,35.8,35.5,36.1,35.1,87,88,85,0.610,32.0,32.6,31.4,5.239,4.9,235,7.3,6.2,0.00007,0.00008,48.0,47.9,45,0,0,0.0,0.05,0.00,0.00
15min,AgWx,bigpiney,439,23SEP2020:00:45:00,39.2,12.55,36.3,36.9,36.2,37.0,35.8,86,87,85,0.631,32.4,33.3,31.9,2.609,3.8,243,5.9,6.1,0.00006,0.00008,47.9,47.9,45,0,0,0.0,0.05,0.00,0.00
15min,AgWx,bigpiney,439,23SEP2020:01:00:00,39.0,12.54,37.3,37.6,37.1,39.0,35.0,86,89,82,0.637,33.2,35.0,30.6,0,1.6,336,66,2.7,0.00004,0.00006,47.9,47.9,45,0,0,0.0,0.05,0.00,0.00
15min,AgWx,bigpiney,439,23SEP2020:01:15:00,38.8,12.53,35.1,36.8,37.7,38.4,36.8,85,87,80,0.592,33.7,34.4,31.2,1.951,0.8,196,9.4,2.2,0.00002,0.00004,47.9,47.9,45,0,0,0.0,0.05,0.00,0.00
15min,AgWx,bigpiney,439,23SEP2020:01:30:00,38.5,12.52,35.0,36.1,37.1,38.7,34.8,84,88,79,0.600,32.7,34.3,29.5,5.283,2.5,171,19,5.3,0.00006,0.00008,47.8,47.8,45,0,0,0.0,0.05,0.00,0.00
15min,AgWx,bigpiney,439,23SEP2020:01:45:00,38.0,12.5,33.6,32.1,32.3,35.9,31.6,87,90,82,0.549,28.9,31.2,28.2,4.494,4.4,217,7.1,6.0,0.00006,0.00007,47.8,47.9,45,0,0,0.0,0.05,0.00,0.00
15min,AgWx,bigpiney,439,23SEP2020:02:00:00,37.2,12.48,37.9,38.1,36.0,38.3,31.7,87,94,83,0.644,32.4,34.2,28.6,3.376,2.5,283,22,4.4,0.00005,0.00006,47.8,47.9,44,0,0,0.0,0.05,0.00,0.00
15min,AgWx,bigpiney,439,23SEP2020:02:15:00,36.9,12.48,39.0,38.0,38.0,38.4,37.6,84,85,82,0.660,33.5,34.2,32.8,2.981,3.3,302,16,4.3,0.00007,0.00010,47.7,47.9,45,0,0,0.0,0.05,0.00,0.00
15min,AgWx,bigpiney,439,23SEP2020:02:30:00,36.7,12.47,31.4,31.8,35.0,38.5,31.8,85,88,82,0.526,31.0,34.7,28.3,3.201,3.0,257,17,4.0,0.00006,0.00008,47.6,47.9,45,0,0,0.0,0.05,0.00,0.00
15min,AgWx,bigpiney,439,23SEP2020:02:45:00,36.3,12.46,32.4,32.0,31.2,32.1,30.4,90,92,87,0.551,28.5,29.9,27.6,2.521,3.7,210,5.3,5.3,0.00004,0.00005,47.6,47.9,45,0,0,0.0,0.05,0.00,0.00
15min,AgWx,bigpiney,439,23SEP2020:03:00:00,35.8,12.45,30.2,30.3,30.8,32.6,29.9,90,91,88,0.518,28.2,30.4,27.3,4.604,4.6,204,7.6,5.7,0.00004,0.00005,47.5,47.8,45,0,0,0.0,0.05,0.00,0.00
15min,AgWx,bigpiney,439,23SEP2020:03:15:00,35.4,12.43,33.3,33.0,32.8,36.3,29.8,90,93,83,0.554,30.0,33.7,27.2,5.327,4.7,239,14,7.0,0.00005,0.00006,47.5,47.9,45,0,0,0.0,0.05,0.00,0.00
15min,AgWx,bigpiney,439,23SEP2020:03:30:00,35.3,12.42,34.1,36.6,34.7,37.3,33.0,87,89,82,0.598,31.3,33.2,29.7,4.889,5.4,254,15,7.3,0.00006,0.00008,47.5,47.8,45,0,0,0.0,0.05,0.00,0.00
15min,AgWx,bigpiney,439,23SEP2020:03:45:00,35.6,12.42,36.9,37.4,35.5,37.5,34.3,86,88,80,0.637,31.7,33.4,30.1,4.121,5.6,236,8.8,7.4,0.00007,0.00009,47.4,47.8,44,0,0,0.0,0.05,0.00,0.00
15min,AgWx,bigpiney,439,23SEP2020:04:00:00,36.0,12.4,35.3,35.4,35.7,37.4,35.2,86,87,83,0.601,31.9,33.0,31.3,5.7,5.5,225,11,6.7,0.00007,0.00009,47.4,47.8,45,0,0,0.0,0.05,0.00,0.00
15min,AgWx,bigpiney,439,23SEP2020:04:15:00,36.4,12.4,35.0,35.6,36.1,36.7,35.3,86,88,83,0.613,32.2,32.9,31.0,2.718,5.1,266,55,7.7,0.00007,0.00009,47.3,47.9,45,0,0,0.0,0.05,0.00,0.00
15min,AgWx,bigpiney,439,23SEP2020:04:30:00,36.6,12.39,38.3,37.1,36.1,37.1,35.0,88,90,86,0.673,32.9,34.4,31.6,1.754,0.9,266,65,4.2,0.00002,0.00003,47.3,47.9,44,0,0,0.0,0.05,0.00,0.00
15min,AgWx,bigpiney,439,23SEP2020:04:45:00,36.4,12.39,38.6,38.2,37.3,38.2,35.7,85,90,79,0.615,33.2,34.8,31.6,3.617,3.8,186,17,4.9,0.00007,0.00009,47.2,47.9,45,0,0,0.0,0.05,0.00,0.00
15min,AgWx,bigpiney,439,23SEP2020:05:00:00,36.2,12.39,32.2,31.8,33.6,38.2,31.4,83,88,77,0.532,28.9,32.1,27.2,0,1.8,174,21,5.3,0.00005,0.00007,47.2,47.8,45,0,0,0.0,0.05,0.00,0.00
15min,AgWx,bigpiney,439,23SEP2020:05:15:00,35.7,12.37,32.8,33.9,32.4,34.2,31.8,87,89,85,0.557,29.0,30.7,28.5,2.105,0.7,80,35,3.2,0.00002,0.00003,47.1,47.8,45,0,0,0.0,0.05,0.00,0.00
15min,AgWx,bigpiney,439,23SEP2020:05:30:00,35.0,12.37,33.8,31.0,30.1,33.7,29.2,88,92,81,0.537,26.8,29.3,26.0,1.776,2.6,116,25,4.3,0.00004,0.00005,47.1,47.8,45,0,0,0.0,0.05,0.00,0.00
15min,AgWx,bigpiney,439,23SEP2020:05:45:00,34.3,12.36,32.7,32.6,32.9,33.7,31.3,88,92,84,0.544,29.6,30.5,28.1,1.513,2.2,103,10,3.6,0.00004,0.00005,47.0,47.8,45,0,0,0.0,0.05,0.00,0.00
15min,AgWx,bigpiney,439,23SEP2020:06:00:00,33.7,12.36,30.5,29.9,30.8,32.6,29.6,88,90,85,0.503,27.7,29.2,26.8,4.582,3.6,187,24,5.0,0.00004,0.00006,47.0,47.8,45,0,0,0.0,0.05,0.00,0.00
15min,AgWx,bigpiney,439,23SEP2020:06:15:00,33.0,12.35,27.9,28.6,29.5,30.0,28.6,89,90,88,0.474,26.7,27.5,25.8,3.595,4.6,204,4.4,5.9,0.00004,0.00005,46.9,47.8,45,0,0,0.0,0.05,0.00,0.00
15min,AgWx,bigpiney,439,23SEP2020:06:30:00,32.3,12.33,26.7,26.3,27.4,28.5,26.2,90,93,88,0.438,25.0,26.3,23.3,4.647,3.6,228,23,5.5,0.00003,0.00004,46.9,47.8,45,0,0,0.0,0.05,0.00,0.00
15min,AgWx,bigpiney,439,23SEP2020:06:45:00,31.7,12.33,33.4,31.7,28.9,31.7,26.3,93,96,91,0.553,27.1,30.1,23.9,3.113,3.0,262,23,5.2,0.00002,0.00003,46.8,47.7,45,0,0,0.0,0.05,0.00,0.00
15min,AgWx,bigpiney,439,23SEP2020:07:00:00,31.5,12.32,31.2,31.6,31.5,32.4,30.2,92,93,87,0.551,29.3,30.3,27.2,1.03,1.8,281,30,4.1,0.00002,0.00003,46.8,47.7,45,0,1,0.0,0.05,0.00,0.00
15min,AgWx,bigpiney,439,23SEP2020:07:15:00,31.5,12.32,29.7,29.7,30.2,31.6,29.6,92,94,89,0.513,28.2,29.4,27.0,2.872,1.4,277,25,3.3,0.00003,0.00004,46.7,47.7,45,4,1,0.0,0.05,0.00,0.00